Location: Jetmore Oil Field
(38.1181°N, 99.9337°W)
Time: 00:37:53
(UTC+00:00)

STARLINK-2732 - Visible Passes

Search period start: 24 October 2021 00:00
Search period end: 03 November 2021 00:00
Orbit: 546 x 548 km, 53.1° (Epoch: 23 October)

Date Brightness Start Highest point End Pass type
(mag) Time Alt. Az. Time Alt. Az. Time Alt. Az.
24 Oct 6.7 11:20:03 10° SE 11:21:30 12° ESE 11:22:56 10° ESE visible
25 Oct 6.4 11:12:27 10° SSE 11:15:03 16° SE 11:17:40 10° E visible
26 Oct 5.9 11:05:23 10° S 11:08:37 22° SE 11:11:51 10° ENE visible
27 Oct 5.3 11:00:31 22° S 11:02:11 31° SE 11:05:50 10° ENE visible
28 Oct 4.5 10:55:26 42° SSE 10:55:46 43° SE 10:59:41 10° ENE visible
28 Oct 4.6 12:31:46 10° W 12:35:22 29° NNW 12:39:01 10° NNE visible
29 Oct 4.4 10:50:08 49° E 10:50:08 49° E 10:53:26 10° NE visible
29 Oct 4.9 12:25:47 10° W 12:29:09 24° NNW 12:32:32 10° NNE visible
30 Oct 5.0 10:44:38 35° NE 10:44:38 35° NE 10:47:07 10° NE visible
30 Oct 5.2 12:20:16 12° WNW 12:22:55 20° NNW 12:26:01 10° NNE visible
31 Oct 5.6 10:38:59 24° NE 10:38:59 24° NE 10:40:44 10° NE visible
31 Oct 5.4 12:14:37 12° NW 12:16:43 17° NNW 12:19:28 10° NNE visible
01 Nov 6.1 10:33:13 17° NE 10:33:13 17° NE 10:34:19 10° NE visible
01 Nov 5.6 12:08:50 12° NW 12:10:31 15° NNW 12:12:55 10° NNE visible
02 Nov 6.4 10:27:21 13° NE 10:27:21 13° NE 10:27:50 10° NE visible
02 Nov 5.7 12:02:58 12° NW 12:04:20 13° NNW 12:06:19 10° NNE visible
